| time (UTC) | temp F | wind direction | speed MPH | gust MPH | rain 1hr in | rain 24hr in | rain mn in | humidity % | barometer mb |
| 20260902031532 | 74 | 19 | 0.0 | 3.0 | 0.00 | 0.00 | 0.00 | 93 | 1017.7 |
| 20260902031012 | 74 | 19 | 0.0 | 3.0 | 0.00 | 0.00 | 0.00 | 93 | 1017.6 |
| 20260902030516 | 75 | 19 | 1.0 | 3.0 | 0.00 | 0.00 | 0.00 | 93 | 1017.6 |
| 20260902030032 | 75 | 19 | 1.0 | 3.0 | 0.00 | 0.00 | 0.00 | 93 | 1017.6 |
| 20260902025512 | 75 | 19 | 1.0 | 3.0 | 0.00 | 0.00 | 0.00 | 93 | 1017.7 |
| 20260902025014 | 75 | 19 | 0.0 | 3.0 | 0.00 | 0.00 | 0.00 | 93 | 1017.6 |
| 20260902024539 | 75 | 19 | 0.0 | 2.0 | 0.00 | 0.00 | 0.00 | 92 | 1017.6 |
| 20260902024018 | 75 | 19 | 0.0 | 2.0 | 0.00 | 0.00 | 0.00 | 92 | 1017.5 |
| 20260902023513 | 75 | 19 | 0.0 | 2.0 | 0.00 | 0.00 | 0.00 | 92 | 1017.5 |
| 20260902023027 | 75 | 19 | 0.0 | 2.0 | 0.00 | 0.00 | 0.00 | 92 | 1017.4 |
| 20260902022514 | 75 | 19 | 0.0 | 2.0 | 0.00 | 0.00 | 0.00 | 92 | 1017.2 |
| 20260902022015 | 75 | 19 | 0.0 | 2.0 | 0.00 | 0.00 | 0.00 | 91 | 1017.2 |
| 20260902021543 | 75 | 19 | 0.0 | 2.0 | 0.00 | 0.00 | 0.00 | 91 | 1017.2 |
| 20260902021016 | 75 | 19 | 0.0 | 2.0 | 0.00 | 0.00 | 0.00 | 91 | 1017.2 |
| 20260902020517 | 75 | 19 | 0.0 | 2.0 | 0.00 | 0.00 | 0.00 | 91 | 1017.1 |
| 20260902020032 | 75 | 19 | 1.0 | 3.0 | 0.00 | 0.00 | 0.00 | 91 | 1017.1 |
| 20260902015518 | 75 | 19 | 0.0 | 3.0 | 0.00 | 0.00 | 0.00 | 91 | 1017.1 |
| 20260902015021 | 75 | 19 | 1.0 | 2.0 | 0.00 | 0.00 | 0.00 | 90 | 1017.1 |
| 20260902014538 | 76 | 19 | 0.0 | 2.0 | 0.00 | 0.00 | 0.00 | 90 | 1017.1 |
| 20260902014013 | 76 | 19 | 0.0 | 2.0 | 0.00 | 0.00 | 0.00 | 90 | 1017.1 |
| 20260902013519 | 76 | 19 | 0.0 | 2.0 | 0.00 | 0.00 | 0.00 | 89 | 1017.2 |
| 20260902013034 | 76 | 19 | 0.0 | 2.0 | 0.00 | 0.00 | 0.00 | 89 | 1017.2 |
| 20260902012519 | 76 | 107 | 0.0 | 0.0 | 0.00 | 0.00 | 0.00 | 89 | 1017.1 |
| 20260902012014 | 76 | 107 | 0.0 | 0.0 | 0.00 | 0.00 | 0.00 | 88 | 1017.1 |
| 20260902011527 | 76 | 106 | 0.0 | 1.0 | 0.00 | 0.00 | 0.00 | 88 | 1017.0 |
| 20260902011003 | 76 | 107 | 0.0 | 1.0 | 0.00 | 0.00 | 0.00 | 88 | 1017.1 |
| 20260902010502 | 77 | 107 | 0.0 | 1.0 | 0.00 | 0.00 | 0.00 | 87 | 1017.0 |
| 20260902010015 | 77 | 106 | 0.0 | 0.0 | 0.00 | 0.00 | 0.00 | 87 | 1017.0 |
| 20260902005504 | 77 | 106 | 0.0 | 0.0 | 0.00 | 0.00 | 0.00 | 87 | 1017.0 |
| 20260902005006 | 77 | 106 | 0.0 | 1.0 | 0.00 | 0.00 | 0.00 | 86 | 1016.9 |
| 20260902004509 | 77 | 106 | 0.0 | 1.0 | 0.00 | 0.00 | 0.00 | 86 | 1016.7 |
| 20260902004006 | 78 | 106 | 0.0 | 1.0 | 0.00 | 0.00 | 0.00 | 86 | 1016.6 |
| 20260902003508 | 78 | 106 | 0.0 | 1.0 | 0.00 | 0.00 | 0.00 | 85 | 1016.5 |
| 20260902003006 | 78 | 107 | 0.0 | 2.0 | 0.00 | 0.00 | 0.00 | 85 | 1016.4 |
| 20260902002504 | 78 | 107 | 0.0 | 2.0 | 0.00 | 0.00 | 0.00 | 84 | 1016.5 |
| 20260902002007 | 78 | 107 | 0.0 | 3.0 | 0.00 | 0.00 | 0.00 | 84 | 1016.7 |
| 20260902001525 | 79 | 107 | 1.0 | 7.0 | 0.00 | 0.00 | 0.00 | 84 | 1016.7 |
| 20260902001002 | 79 | 111 | 2.0 | 7.0 | 0.00 | 0.00 | 0.00 | 83 | 1016.5 |
| 20260902000504 | 79 | 115 | 1.0 | 5.0 | 0.00 | 0.00 | 0.00 | 83 | 1016.6 |
| 20260902000009 | 79 | 73 | 1.0 | 8.0 | 0.00 | 0.00 | 0.00 | 83 | 1016.7 |
| 20260901235504 | 79 | 78 | 2.0 | 8.0 | 0.00 | 0.00 | 0.00 | 82 | 1016.7 |
| 20260901235004 | 79 | 51 | 2.0 | 8.0 | 0.00 | 0.00 | 0.00 | 82 | 1016.8 |
| 20260901234511 | 80 | 105 | 4.0 | 8.0 | 0.00 | 0.00 | 0.00 | 82 | 1016.9 |
| 20260901234007 | 80 | 105 | 3.0 | 8.0 | 0.00 | 0.00 | 0.00 | 82 | 1017.0 |
| 20260901233504 | 80 | 77 | 2.0 | 8.0 | 0.00 | 0.00 | 0.00 | 81 | 1017.0 |
| 20260901233011 | 80 | 94 | 1.0 | 5.0 | 0.00 | 0.00 | 0.00 | 81 | 1017.1 |
| 20260901232508 | 80 | 104 | 2.0 | 5.0 | 0.00 | 0.00 | 0.00 | 81 | 1017.1 |
| 20260901232008 | 80 | 84 | 2.0 | 4.0 | 0.00 | 0.00 | 0.00 | 80 | 1017.2 |
| 20260901231505 | 80 | 97 | 1.0 | 5.0 | 0.00 | 0.00 | 0.00 | 80 | 1017.2 |
| 20260901231006 | 81 | 94 | 2.0 | 10.0 | 0.00 | 0.00 | 0.00 | 80 | 1017.3 |
| 20260901230510 | 81 | 78 | 2.0 | 10.0 | 0.00 | 0.00 | 0.00 | 79 | 1017.3 |
| 20260901230005 | 81 | 96 | 4.0 | 10.0 | 0.00 | 0.00 | 0.00 | 79 | 1017.4 |
| 20260901225504 | 81 | 107 | 3.0 | 10.0 | 0.00 | 0.00 | 0.00 | 78 | 1017.5 |
| 20260901225004 | 81 | 59 | 4.0 | 10.0 | 0.00 | 0.00 | 0.00 | 78 | 1017.5 |
| 20260901224505 | 82 | 90 | 3.0 | 11.0 | 0.00 | 0.00 | 0.00 | 78 | 1017.5 |
| 20260901224003 | 82 | 115 | 4.0 | 11.0 | 0.00 | 0.00 | 0.00 | 77 | 1017.6 |
| 20260901223504 | 82 | 64 | 4.0 | 10.0 | 0.00 | 0.00 | 0.00 | 77 | 1017.5 |
| 20260901223013 | 82 | 96 | 4.0 | 11.0 | 0.00 | 0.00 | 0.00 | 76 | 1017.6 |
| 20260901222504 | 83 | 79 | 6.0 | 11.0 | 0.00 | 0.00 | 0.00 | 75 | 1017.6 |
| 20260901222004 | 83 | 95 | 6.0 | 11.0 | 0.00 | 0.00 | 0.00 | 75 | 1017.7 |
| 20260901221515 | 84 | 107 | 5.0 | 11.0 | 0.00 | 0.00 | 0.00 | 74 | 1017.7 |
| 20260901221008 | 84 | 86 | 5.0 | 10.0 | 0.00 | 0.00 | 0.00 | 73 | 1017.7 |
| 20260901220504 | 84 | 85 | 4.0 | 11.0 | 0.00 | 0.00 | 0.00 | 73 | 1017.7 |
| 20260901220012 | 85 | 111 | 6.0 | 11.0 | 0.00 | 0.00 | 0.00 | 72 | 1017.6 |
| 20260901215510 | 85 | 46 | 5.0 | 11.0 | 0.00 | 0.00 | 0.00 | 71 | 1017.6 |
| 20260901215016 | 85 | 62 | 3.0 | 11.0 | 0.00 | 0.00 | 0.00 | 72 | 1017.6 |
| 20260901214517 | 86 | 98 | 5.0 | 13.0 | 0.00 | 0.00 | 0.00 | 71 | 1017.6 |
| 20260901214008 | 86 | 103 | 6.0 | 16.0 | 0.00 | 0.00 | 0.00 | 71 | 1017.6 |
| 20260901213505 | 86 | 101 | 8.0 | 16.0 | 0.00 | 0.00 | 0.00 | 70 | 1017.5 |
| 20260901213009 | 86 | 92 | 5.0 | 12.0 | 0.00 | 0.00 | 0.00 | 71 | 1017.7 |
| 20260901212506 | 86 | 107 | 7.0 | 12.0 | 0.00 | 0.00 | 0.00 | 70 | 1017.7 |
| 20260901212006 | 86 | 81 | 4.0 | 17.0 | 0.00 | 0.00 | 0.00 | 70 | 1017.5 |
| 20260901211512 | 86 | 90 | 9.0 | 17.0 | 0.00 | 0.00 | 0.00 | 69 | 1017.6 |
| 20260901211005 | 86 | 65 | 5.0 | 14.0 | 0.00 | 0.00 | 0.00 | 70 | 1017.7 |
| 20260901210508 | 86 | 90 | 7.0 | 13.0 | 0.00 | 0.00 | 0.00 | 71 | 1017.7 |
| 20260901210023 | 86 | 110 | 7.0 | 12.0 | 0.00 | 0.00 | 0.00 | 71 | 1017.8 |
| 20260901205512 | 86 | 134 | 6.0 | 13.0 | 0.00 | 0.00 | 0.00 | 72 | 1017.5 |
| 20260901205007 | 85 | 122 | 6.0 | 13.0 | 0.00 | 0.00 | 0.00 | 73 | 1017.6 |
| 20260901204528 | 84 | 121 | 5.0 | 13.0 | 0.00 | 0.00 | 0.00 | 76 | 1017.6 |
| 20260901204017 | 83 | 75 | 6.0 | 15.0 | 0.00 | 0.00 | 0.00 | 75 | 1017.7 |
| 20260901203517 | 83 | 85 | 8.0 | 15.0 | 0.00 | 0.00 | 0.00 | 75 | 1017.8 |
| 20260901203015 | 83 | 68 | 3.0 | 12.0 | 0.00 | 0.00 | 0.00 | 77 | 1017.8 |
| 20260901202507 | 83 | 134 | 5.0 | 13.0 | 0.00 | 0.00 | 0.00 | 76 | 1017.8 |
| 20260901202004 | 83 | 90 | 7.0 | 15.0 | 0.00 | 0.00 | 0.00 | 75 | 1017.7 |
| 20260901201510 | 84 | 99 | 8.0 | 15.0 | 0.00 | 0.00 | 0.00 | 74 | 1017.7 |
| 20260901201004 | 84 | 98 | 5.0 | 12.0 | 0.00 | 0.00 | 0.00 | 75 | 1017.6 |
| 20260901200508 | 84 | 44 | 5.0 | 13.0 | 0.00 | 0.00 | 0.00 | 75 | 1017.7 |
| 20260901200030 | 85 | 63 | 9.0 | 17.0 | 0.00 | 0.00 | 0.00 | 73 | 1017.4 |
| 20260901195508 | 85 | 117 | 6.0 | 17.0 | 0.00 | 0.00 | 0.00 | 73 | 1017.4 |
| 20260901195012 | 86 | 28 | 9.0 | 15.0 | 0.00 | 0.00 | 0.00 | 72 | 1017.4 |
| 20260901194524 | 86 | 35 | 7.0 | 15.0 | 0.00 | 0.00 | 0.00 | 74 | 1017.4 |
| 20260901194014 | 86 | 40 | 7.0 | 18.0 | 0.00 | 0.00 | 0.00 | 73 | 1017.5 |
| 20260901193506 | 86 | 91 | 9.0 | 18.0 | 0.00 | 0.00 | 0.00 | 72 | 1017.5 |
| 20260901193025 | 86 | 57 | 9.0 | 16.0 | 0.00 | 0.00 | 0.00 | 73 | 1017.5 |
| 20260901192514 | 86 | 82 | 9.0 | 16.0 | 0.00 | 0.00 | 0.00 | 72 | 1017.4 |
| 20260901192007 | 86 | 74 | 6.0 | 13.0 | 0.00 | 0.00 | 0.00 | 73 | 1017.4 |
| 20260901191530 | 86 | 119 | 8.0 | 13.0 | 0.00 | 0.00 | 0.00 | 73 | 1017.4 |
| 20260901191014 | 86 | 124 | 6.0 | 13.0 | 0.00 | 0.00 | 0.00 | 74 | 1017.4 |
| 20260901190502 | 85 | 78 | 5.0 | 14.0 | 0.00 | 0.00 | 0.00 | 73 | 1017.4 |
| 20260901190014 | 85 | 45 | 5.0 | 14.0 | 0.00 | 0.00 | 0.00 | 72 | 1017.4 |
| 20260901185504 | 85 | 78 | 4.0 | 12.0 | 0.00 | 0.00 | 0.00 | 72 | 1017.4 |
| 20260901185002 | 85 | 65 | 5.0 | 13.0 | 0.00 | 0.00 | 0.00 | 74 | 1017.3 |
| 20260901184504 | 85 | 47 | 6.0 | 13.0 | 0.00 | 0.00 | 0.00 | 74 | 1017.5 |
| 20260901184003 | 85 | 5 | 4.0 | 12.0 | 0.00 | 0.00 | 0.00 | 75 | 1017.5 |
| 20260901183502 | 84 | 48 | 6.0 | 12.0 | 0.00 | 0.00 | 0.00 | 73 | 1017.7 |
| 20260901183005 | 85 | 87 | 6.0 | 12.0 | 0.00 | 0.00 | 0.00 | 74 | 1017.6 |
| 20260901182504 | 84 | 63 | 6.0 | 13.0 | 0.00 | 0.00 | 0.00 | 76 | 1017.7 |
| 20260901182003 | 83 | 92 | 4.0 | 16.0 | 0.00 | 0.00 | 0.00 | 76 | 1017.7 |
| 20260901181506 | 84 | 59 | 7.0 | 16.0 | 0.00 | 0.00 | 0.00 | 74 | 1017.8 |
| 20260901181004 | 84 | 61 | 7.0 | 15.0 | 0.00 | 0.00 | 0.00 | 74 | 1017.8 |
| 20260901180505 | 84 | 46 | 4.0 | 11.0 | 0.00 | 0.00 | 0.00 | 76 | 1017.8 |
| 20260901180004 | 84 | 67 | 6.0 | 11.0 | 0.00 | 0.00 | 0.00 | 76 | 1017.9 |
| 20260901175503 | 84 | 23 | 6.0 | 14.0 | 0.00 | 0.00 | 0.00 | 76 | 1017.9 |
| 20260901175008 | 84 | 84 | 7.0 | 14.0 | 0.00 | 0.00 | 0.00 | 74 | 1017.8 |
| 20260901174504 | 85 | 62 | 6.0 | 17.0 | 0.00 | 0.00 | 0.00 | 74 | 1017.9 |
| 20260901174004 | 85 | 101 | 9.0 | 17.0 | 0.00 | 0.00 | 0.00 | 74 | 1017.9 |
| 20260901173505 | 85 | 47 | 10.0 | 15.0 | 0.00 | 0.00 | 0.00 | 75 | 1018.0 |
| 20260901173019 | 84 | 44 | 7.0 | 13.0 | 0.00 | 0.00 | 0.00 | 76 | 1018.1 |
| 20260901172503 | 84 | 60 | 7.0 | 14.0 | 0.00 | 0.00 | 0.00 | 74 | 1018.1 |
| 20260901172004 | 84 | 84 | 8.0 | 14.0 | 0.00 | 0.00 | 0.00 | 75 | 1018.1 |
| 20260901171504 | 84 | 114 | 8.0 | 14.0 | 0.00 | 0.00 | 0.00 | 75 | 1018.2 |
| 20260901171005 | 84 | 121 | 7.0 | 12.0 | 0.00 | 0.00 | 0.00 | 76 | 1018.1 |
| 20260901170503 | 84 | 118 | 5.0 | 14.0 | 0.00 | 0.00 | 0.00 | 75 | 1018.2 |
| 20260901170010 | 84 | 100 | 6.0 | 16.0 | 0.00 | 0.00 | 0.00 | 74 | 1018.3 |
| 20260901165502 | 85 | 30 | 7.0 | 16.0 | 0.00 | 0.00 | 0.00 | 73 | 1018.2 |
| 20260901165002 | 85 | 87 | 9.0 | 15.0 | 0.00 | 0.00 | 0.00 | 73 | 1018.3 |
| 20260901164509 | 85 | 109 | 9.0 | 18.0 | 0.00 | 0.00 | 0.00 | 73 | 1018.4 |
| 20260901164009 | 85 | 76 | 10.0 | 18.0 | 0.00 | 0.00 | 0.00 | 72 | 1018.4 |
| 20260901163509 | 85 | 49 | 7.0 | 17.0 | 0.00 | 0.00 | 0.00 | 75 | 1018.4 |
| 20260901163003 | 85 | 59 | 9.0 | 20.0 | 0.00 | 0.00 | 0.00 | 73 | 1018.5 |
| 20260901162506 | 85 | 69 | 11.0 | 20.0 | 0.00 | 0.00 | 0.00 | 72 | 1018.4 |
| 20260901162008 | 85 | 133 | 9.0 | 16.0 | 0.00 | 0.00 | 0.00 | 73 | 1018.4 |
| 20260901161524 | 86 | 115 | 8.0 | 17.0 | 0.00 | 0.00 | 0.00 | 71 | 1018.3 |
| 20260901161003 | 86 | 157 | 9.0 | 18.0 | 0.00 | 0.00 | 0.00 | 72 | 1018.2 |
| 20260901160504 | 87 | 82 | 8.0 | 18.0 | 0.00 | 0.00 | 0.00 | 70 | 1018.1 |
| 20260901160010 | 87 | 71 | 8.0 | 17.0 | 0.00 | 0.00 | 0.00 | 71 | 1018.2 |
| 20260901155503 | 87 | 115 | 7.0 | 17.0 | 0.00 | 0.00 | 0.00 | 70 | 1018.1 |
| 20260901155004 | 86 | 98 | 8.0 | 16.0 | 0.00 | 0.00 | 0.00 | 71 | 1018.0 |
| 20260901154507 | 86 | 116 | 7.0 | 15.0 | 0.00 | 0.00 | 0.00 | 71 | 1018.0 |
| 20260901154003 | 86 | 136 | 5.0 | 15.0 | 0.00 | 0.00 | 0.00 | 72 | 1017.9 |
| 20260901153506 | 86 | 44 | 8.0 | 17.0 | 0.00 | 0.00 | 0.00 | 73 | 1017.9 |
| 20260901153020 | 86 | 63 | 7.0 | 18.0 | 0.00 | 0.00 | 0.00 | 73 | 1017.8 |
| 20260901152509 | 86 | 84 | 9.0 | 18.0 | 0.00 | 0.00 | 0.00 | 71 | 1017.8 |
| 20260901152008 | 86 | 99 | 8.0 | 17.0 | 0.00 | 0.00 | 0.00 | 71 | 1017.9 |
| 20260901151511 | 86 | 91 | 4.0 | 12.0 | 0.00 | 0.00 | 0.00 | 73 | 1017.9 |
| 20260901151009 | 85 | 94 | 6.0 | 12.0 | 0.00 | 0.00 | 0.00 | 72 | 1017.7 |
| 20260901150511 | 85 | 101 | 5.0 | 23.0 | 0.00 | 0.00 | 0.00 | 72 | 1017.6 |
| 20260901150007 | 84 | 147 | 9.0 | 23.0 | 0.00 | 0.00 | 0.00 | 72 | 1017.7 |
| 20260901145503 | 84 | 113 | 9.0 | 18.0 | 0.00 | 0.00 | 0.00 | 72 | 1017.9 |
| 20260901145003 | 84 | 65 | 10.0 | 18.0 | 0.00 | 0.00 | 0.00 | 72 | 1017.8 |
| 20260901144507 | 84 | 47 | 9.0 | 16.0 | 0.00 | 0.00 | 0.00 | 73 | 1017.8 |
| 20260901144005 | 84 | 51 | 6.0 | 13.0 | 0.00 | 0.00 | 0.00 | 74 | 1017.7 |
| 20260901143503 | 83 | 84 | 6.0 | 14.0 | 0.00 | 0.00 | 0.00 | 74 | 1017.8 |
| 20260901143014 | 83 | 117 | 4.0 | 16.0 | 0.00 | 0.00 | 0.00 | 76 | 1017.8 |
| 20260901142507 | 83 | 105 | 5.0 | 16.0 | 0.00 | 0.00 | 0.00 | 76 | 1018.0 |
| 20260901142010 | 83 | 79 | 10.0 | 17.0 | 0.00 | 0.00 | 0.00 | 75 | 1018.0 |
| 20260901141518 | 82 | 72 | 9.0 | 18.0 | 0.00 | 0.00 | 0.00 | 75 | 1017.9 |
| 20260901141012 | 83 | 145 | 9.0 | 18.0 | 0.00 | 0.00 | 0.00 | 74 | 1017.8 |
| 20260901140505 | 83 | 92 | 5.0 | 14.0 | 0.00 | 0.00 | 0.00 | 76 | 1017.6 |
| 20260901140016 | 83 | 79 | 5.0 | 11.0 | 0.00 | 0.00 | 0.00 | 76 | 1017.6 |
| 20260901135509 | 82 | 139 | 5.0 | 14.0 | 0.00 | 0.00 | 0.00 | 76 | 1017.5 |
| 20260901135014 | 82 | 113 | 3.0 | 14.0 | 0.00 | 0.00 | 0.00 | 77 | 1017.6 |
| 20260901134513 | 82 | 80 | 8.0 | 14.0 | 0.00 | 0.00 | 0.00 | 78 | 1017.6 |
| 20260901134007 | 81 | 111 | 4.0 | 9.0 | 0.00 | 0.00 | 0.00 | 80 | 1017.7 |
| 20260901133513 | 81 | 123 | 3.0 | 8.0 | 0.00 | 0.00 | 0.00 | 79 | 1017.7 |
| 20260901133013 | 80 | 105 | 3.0 | 12.0 | 0.00 | 0.00 | 0.00 | 81 | 1017.7 |
| 20260901132507 | 80 | 46 | 6.0 | 13.0 | 0.00 | 0.00 | 0.00 | 81 | 1017.8 |
| 20260901132004 | 79 | 119 | 6.0 | 13.0 | 0.00 | 0.00 | 0.00 | 82 | 1017.9 |
| 20260901131516 | 78 | 88 | 4.0 | 11.0 | 0.00 | 0.00 | 0.00 | 84 | 1017.8 |
| 20260901131004 | 78 | 110 | 6.0 | 11.0 | 0.00 | 0.00 | 0.00 | 84 | 1017.8 |
| 20260901130510 | 78 | 92 | 5.0 | 9.0 | 0.00 | 0.00 | 0.00 | 84 | 1017.9 |
| 20260901130025 | 77 | 94 | 5.0 | 11.0 | 0.00 | 0.00 | 0.00 | 84 | 1017.9 |
| 20260901125516 | 77 | 65 | 4.0 | 11.0 | 0.00 | 0.00 | 0.00 | 84 | 1017.9 |
| 20260901125007 | 77 | 96 | 5.0 | 10.0 | 0.00 | 0.00 | 0.00 | 85 | 1018.0 |
| 20260901124528 | 77 | 92 | 5.0 | 10.0 | 0.00 | 0.00 | 0.00 | 86 | 1018.0 |
| 20260901124014 | 76 | 76 | 5.0 | 10.0 | 0.00 | 0.00 | 0.00 | 86 | 1018.0 |
| 20260901123520 | 76 | 88 | 4.0 | 11.0 | 0.00 | 0.00 | 0.00 | 86 | 1018.0 |
| 20260901123021 | 76 | 84 | 6.0 | 11.0 | 0.00 | 0.00 | 0.00 | 86 | 1018.0 |
| 20260901122515 | 76 | 94 | 5.0 | 12.0 | 0.00 | 0.00 | 0.00 | 87 | 1018.0 |
| 20260901122015 | 75 | 62 | 7.0 | 12.0 | 0.00 | 0.00 | 0.00 | 87 | 1017.9 |
| 20260901121511 | 75 | 102 | 3.0 | 9.0 | 0.00 | 0.00 | 0.00 | 87 | 1018.0 |
| 20260901121006 | 75 | 92 | 5.0 | 9.0 | 0.00 | 0.00 | 0.00 | 87 | 1017.9 |
| 20260901120507 | 75 | 67 | 3.0 | 8.0 | 0.00 | 0.00 | 0.00 | 88 | 1018.0 |
| 20260901120015 | 75 | 93 | 5.0 | 8.0 | 0.00 | 0.00 | 0.00 | 88 | 1018.0 |
| 20260901115507 | 74 | 78 | 4.0 | 8.0 | 0.00 | 0.00 | 0.00 | 89 | 1018.0 |
| 20260901115010 | 74 | 102 | 4.0 | 8.0 | 0.00 | 0.00 | 0.00 | 89 | 1017.9 |
| 20260901114532 | 74 | 93 | 4.0 | 7.0 | 0.00 | 0.00 | 0.00 | 89 | 1017.9 |
| 20260901114013 | 74 | 136 | 2.0 | 10.0 | 0.00 | 0.00 | 0.00 | 89 | 1017.9 |
| 20260901113508 | 74 | 85 | 5.0 | 10.0 | 0.00 | 0.00 | 0.00 | 89 | 1017.9 |
| 20260901113027 | 74 | 63 | 3.0 | 6.0 | 0.00 | 0.00 | 0.00 | 89 | 1017.9 |
| 20260901112514 | 74 | 87 | 2.0 | 7.0 | 0.00 | 0.00 | 0.00 | 89 | 1017.8 |
| 20260901112009 | 74 | 82 | 3.0 | 7.0 | 0.00 | 0.00 | 0.00 | 89 | 1017.8 |
| 20260901111526 | 74 | 80 | 2.0 | 5.0 | 0.00 | 0.00 | 0.00 | 89 | 1017.7 |
| 20260901111014 | 74 | 76 | 2.0 | 5.0 | 0.00 | 0.00 | 0.00 | 88 | 1017.6 |
| 20260901110520 | 74 | 57 | 2.0 | 7.0 | 0.00 | 0.00 | 0.00 | 88 | 1017.6 |
| 20260901110022 | 74 | 59 | 2.0 | 7.0 | 0.00 | 0.00 | 0.00 | 88 | 1017.5 |
| 20260901105508 | 74 | 76 | 3.0 | 7.0 | 0.00 | 0.00 | 0.00 | 88 | 1017.5 |
| 20260901105012 | 74 | 48 | 3.0 | 10.0 | 0.00 | 0.00 | 0.00 | 89 | 1017.4 |
| 20260901104530 | 74 | 78 | 4.0 | 10.0 | 0.00 | 0.00 | 0.00 | 89 | 1017.4 |
| 20260901104012 | 74 | 53 | 4.0 | 10.0 | 0.00 | 0.00 | 0.00 | 89 | 1017.4 |
| 20260901103511 | 74 | 54 | 5.0 | 9.0 | 0.00 | 0.00 | 0.00 | 90 | 1017.4 |
| 20260901103028 | 73 | 86 | 3.0 | 9.0 | 0.00 | 0.00 | 0.00 | 90 | 1017.5 |
| 20260901102518 | 73 | 11 | 3.0 | 7.0 | 0.00 | 0.00 | 0.00 | 90 | 1017.5 |
| 20260901102012 | 73 | 46 | 3.0 | 7.0 | 0.00 | 0.00 | 0.00 | 90 | 1017.5 |
| 20260901101529 | 73 | 76 | 3.0 | 7.0 | 0.00 | 0.00 | 0.00 | 90 | 1017.5 |
| 20260901101014 | 73 | 67 | 2.0 | 7.0 | 0.00 | 0.00 | 0.00 | 90 | 1017.4 |
| 20260901100503 | 73 | 63 | 3.0 | 6.0 | 0.00 | 0.00 | 0.00 | 91 | 1017.3 |
| 20260901100004 | 73 | 36 | 3.0 | 7.0 | 0.00 | 0.00 | 0.00 | 91 | 1017.3 |
| 20260901095506 | 73 | 43 | 2.0 | 7.0 | 0.00 | 0.00 | 0.00 | 91 | 1017.3 |
| 20260901095008 | 73 | 88 | 2.0 | 4.0 | 0.00 | 0.00 | 0.00 | 90 | 1017.3 |
| 20260901094505 | 73 | 26 | 2.0 | 4.0 | 0.00 | 0.00 | 0.00 | 90 | 1017.4 |
| 20260901094002 | 73 | 35 | 1.0 | 4.0 | 0.00 | 0.00 | 0.00 | 91 | 1017.4 |
| 20260901093507 | 73 | 45 | 1.0 | 5.0 | 0.00 | 0.00 | 0.00 | 91 | 1017.3 |
| 20260901093023 | 73 | 68 | 2.0 | 5.0 | 0.00 | 0.00 | 0.00 | 91 | 1017.4 |
| 20260901092505 | 73 | 34 | 2.0 | 6.0 | 0.00 | 0.00 | 0.00 | 91 | 1017.4 |
| 20260901092006 | 73 | 35 | 2.0 | 6.0 | 0.00 | 0.00 | 0.00 | 91 | 1017.4 |
| 20260901091509 | 73 | 38 | 2.0 | 7.0 | 0.00 | 0.00 | 0.00 | 91 | 1017.4 |
| 20260901091004 | 72 | 34 | 2.0 | 10.0 | 0.00 | 0.00 | 0.00 | 91 | 1017.3 |
| 20260901090502 | 72 | 360 | 3.0 | 10.0 | 0.00 | 0.00 | 0.00 | 91 | 1017.3 |
| 20260901090012 | 72 | 18 | 1.0 | 4.0 | 0.00 | 0.00 | 0.00 | 91 | 1017.4 |
| 20260901085503 | 72 | 24 | 1.0 | 4.0 | 0.00 | 0.00 | 0.00 | 91 | 1017.4 |
| 20260901085003 | 72 | 15 | 2.0 | 4.0 | 0.00 | 0.00 | 0.00 | 91 | 1017.4 |
| 20260901084512 | 72 | 17 | 1.0 | 4.0 | 0.00 | 0.00 | 0.00 | 91 | 1017.4 |
| 20260901084010 | 72 | 26 | 2.0 | 4.0 | 0.00 | 0.00 | 0.00 | 91 | 1017.4 |
| 20260901083509 | 73 | 37 | 1.0 | 3.0 | 0.00 | 0.00 | 0.00 | 91 | 1017.5 |
| 20260901083008 | 73 | 19 | 1.0 | 3.0 | 0.00 | 0.00 | 0.00 | 91 | 1017.4 |
| 20260901082506 | 73 | 24 | 1.0 | 3.0 | 0.00 | 0.00 | 0.00 | 91 | 1017.5 |
| 20260901082008 | 73 | 21 | 1.0 | 3.0 | 0.00 | 0.00 | 0.00 | 90 | 1017.4 |
| 20260901081531 | 73 | 36 | 1.0 | 4.0 | 0.00 | 0.00 | 0.00 | 90 | 1017.5 |
| 20260901081002 | 73 | 23 | 1.0 | 4.0 | 0.00 | 0.00 | 0.00 | 90 | 1017.5 |
| 20260901080504 | 73 | 43 | 1.0 | 4.0 | 0.00 | 0.00 | 0.00 | 90 | 1017.4 |
| 20260901080008 | 73 | 28 | 1.0 | 4.0 | 0.00 | 0.00 | 0.00 | 90 | 1017.4 |
| 20260901075503 | 73 | 32 | 1.0 | 5.0 | 0.00 | 0.00 | 0.00 | 90 | 1017.3 |
| 20260901075003 | 73 | 18 | 2.0 | 5.0 | 0.00 | 0.00 | 0.00 | 90 | 1017.3 |
| 20260901074511 | 73 | 57 | 2.0 | 5.0 | 0.00 | 0.00 | 0.00 | 90 | 1017.3 |
| 20260901074005 | 73 | 52 | 2.0 | 4.0 | 0.00 | 0.00 | 0.00 | 90 | 1017.3 |
| 20260901073503 | 73 | 42 | 2.0 | 5.0 | 0.00 | 0.00 | 0.00 | 90 | 1017.2 |
| 20260901073016 | 73 | 46 | 2.0 | 5.0 | 0.00 | 0.00 | 0.00 | 90 | 1017.2 |
| 20260901072511 | 73 | 5 | 2.0 | 4.0 | 0.00 | 0.00 | 0.00 | 90 | 1017.2 |
| 20260901072008 | 73 | 58 | 2.0 | 5.0 | 0.00 | 0.00 | 0.00 | 90 | 1017.3 |
| 20260901071514 | 73 | 22 | 2.0 | 8.0 | 0.00 | 0.00 | 0.00 | 90 | 1017.3 |
| 20260901071009 | 73 | 21 | 2.0 | 8.0 | 0.00 | 0.00 | 0.00 | 90 | 1017.3 |
| 20260901070512 | 73 | 34 | 2.0 | 5.0 | 0.00 | 0.00 | 0.00 | 90 | 1017.4 |
| 20260901070007 | 73 | 32 | 2.0 | 4.0 | 0.00 | 0.00 | 0.00 | 90 | 1017.5 |
| 20260901065507 | 73 | 43 | 2.0 | 4.0 | 0.00 | 0.00 | 0.00 | 90 | 1017.5 |
| 20260901065013 | 73 | 49 | 2.0 | 5.0 | 0.00 | 0.00 | 0.00 | 90 | 1017.7 |
| 20260901064509 | 73 | 42 | 3.0 | 5.0 | 0.00 | 0.00 | 0.00 | 89 | 1017.5 |
| 20260901064005 | 73 | 36 | 2.0 | 6.0 | 0.00 | 0.00 | 0.00 | 89 | 1017.5 |
| 20260901063504 | 73 | 28 | 2.0 | 6.0 | 0.00 | 0.00 | 0.00 | 89 | 1017.5 |
| 20260901063021 | 73 | 30 | 2.0 | 5.0 | 0.00 | 0.00 | 0.00 | 89 | 1017.5 |
| 20260901062509 | 73 | 28 | 2.0 | 5.0 | 0.00 | 0.00 | 0.00 | 89 | 1017.5 |
| 20260901062007 | 73 | 29 | 3.0 | 5.0 | 0.00 | 0.00 | 0.00 | 90 | 1017.5 |
| 20260901061525 | 73 | 30 | 2.0 | 5.0 | 0.00 | 0.00 | 0.00 | 90 | 1017.6 |
| 20260901061009 | 73 | 31 | 2.0 | 5.0 | 0.00 | 0.00 | 0.00 | 90 | 1017.7 |
| 20260901060506 | 73 | 27 | 3.0 | 5.0 | 0.00 | 0.00 | 0.00 | 90 | 1017.7 |
| 20260901060018 | 73 | 34 | 1.0 | 5.0 | 0.00 | 0.00 | 0.00 | 90 | 1017.8 |
| 20260901055511 | 73 | 78 | 2.0 | 4.0 | 0.00 | 0.00 | 0.00 | 90 | 1017.8 |
| 20260901055014 | 73 | 40 | 2.0 | 4.0 | 0.00 | 0.00 | 0.00 | 90 | 1017.7 |
| 20260901054516 | 73 | 32 | 2.0 | 4.0 | 0.00 | 0.00 | 0.00 | 90 | 1017.8 |
| 20260901054011 | 73 | 26 | 2.0 | 3.0 | 0.00 | 0.00 | 0.00 | 89 | 1017.8 |
| 20260901053516 | 73 | 30 | 1.0 | 4.0 | 0.00 | 0.00 | 0.00 | 89 | 1017.9 |
| 20260901053035 | 73 | 22 | 2.0 | 5.0 | 0.00 | 0.00 | 0.00 | 89 | 1017.9 |
| 20260901052506 | 73 | 15 | 2.0 | 5.0 | 0.00 | 0.00 | 0.00 | 89 | 1017.9 |
| 20260901052008 | 73 | 36 | 2.0 | 4.0 | 0.00 | 0.00 | 0.00 | 89 | 1017.9 |
| 20260901051528 | 73 | 62 | 2.0 | 5.0 | 0.00 | 0.00 | 0.00 | 89 | 1018.1 |
| 20260901051003 | 73 | 49 | 2.0 | 5.0 | 0.00 | 0.00 | 0.00 | 89 | 1018.1 |
| 20260901050512 | 73 | 54 | 2.0 | 5.0 | 0.00 | 0.00 | 0.00 | 89 | 1018.1 |
| 20260901050027 | 74 | 46 | 3.0 | 5.0 | 0.00 | 0.00 | 0.00 | 89 | 1018.0 |
| 20260901045513 | 74 | 28 | 2.0 | 5.0 | 0.00 | 0.00 | 0.00 | 89 | 1018.0 |
| 20260901045009 | 74 | 21 | 2.0 | 5.0 | 0.00 | 0.00 | 0.00 | 89 | 1018.1 |
| 20260901044527 | 74 | 15 | 2.0 | 5.0 | 0.00 | 0.00 | 0.00 | 89 | 1018.1 |
| 20260901044012 | 74 | 50 | 2.0 | 4.0 | 0.00 | 0.00 | 0.00 | 89 | 1018.1 |
| 20260901043514 | 74 | 18 | 2.0 | 5.0 | 0.00 | 0.00 | 0.00 | 88 | 1018.1 |
| 20260901043030 | 74 | 26 | 2.0 | 5.0 | 0.00 | 0.00 | 0.00 | 89 | 1018.2 |
| 20260901042512 | 74 | 50 | 2.0 | 5.0 | 0.00 | 0.00 | 0.00 | 89 | 1018.2 |
| 20260901042013 | 74 | 62 | 3.0 | 5.0 | 0.00 | 0.00 | 0.00 | 89 | 1018.3 |
| 20260901041541 | 74 | 88 | 2.0 | 4.0 | 0.00 | 0.00 | 0.00 | 89 | 1018.2 |
| 20260901041007 | 74 | 55 | 2.0 | 4.0 | 0.00 | 0.00 | 0.00 | 89 | 1018.2 |
| 20260901040509 | 74 | 63 | 1.0 | 4.0 | 0.00 | 0.00 | 0.00 | 89 | 1018.3 |
| 20260901040022 | 74 | 65 | 0.0 | 4.0 | 0.00 | 0.00 | 0.00 | 88 | 1018.3 |
| 20260901035506 | 74 | 25 | 0.0 | 1.0 | 0.00 | 0.00 | 0.00 | 88 | 1018.1 |
| 20260901035013 | 74 | 13 | 0.0 | 0.0 | 0.00 | 0.00 | 0.00 | 88 | 1017.9 |
| 20260901034528 | 74 | 13 | 0.0 | 0.0 | 0.00 | 0.00 | 0.00 | 88 | 1017.9 |
| 20260901034013 | 74 | 13 | 0.0 | 0.0 | 0.00 | 0.00 | 0.00 | 88 | 1017.8 |
| 20260901033509 | 74 | 13 | 0.0 | 2.0 | 0.00 | 0.00 | 0.00 | 88 | 1017.8 |
| 20260901033036 | 74 | 13 | 0.0 | 2.0 | 0.00 | 0.00 | 0.00 | 88 | 1017.8 |
| 20260901032518 | 74 | 13 | 0.0 | 2.0 | 0.00 | 0.00 | 0.00 | 87 | 1017.9 |
| 20260901032012 | 74 | 13 | 0.0 | 3.0 | 0.00 | 0.00 | 0.00 | 87 | 1017.8 |